Wind_Speed
15 15 15 13 10 9 9 9 10 10 11 14 16 19 20 15 8 5 5 5 5 6 5 3 3 3 3 4 4 4 4 3 2 3 4 5 5 5 5 5 5 6 7 6 6 6 5 4 4 3 3 3 3 2 1 2 3 3 3 3 4 5
15 14 13 11 9 8 9 10 11 11 12 14 16 18 20 18 10 5 5 5 5 5 5 4 4 4 4 4 3 3 3 3 3 4 4 5 6 6 6 6 5 6 7 7 7 7 6 5 5 4 4 4 3 1 1 1 2 2 2 2 2 4
15 14 11 9 8 8 9 10 11 11 12 13 15 18 19 19 14 7 5 5 5 5 5 4 4 4 4 4 4 3 3 4 4 4 4 4 5 6 7 6 6 6 6 7 7 7 7 6 5 4 4 3 2 1 0 1 0 0 1 2 3 4
14 13 9 7 7 8 8 9 10 11 13 13 14 17 19 19 17 11 7 6 6 5 5 4 4 3 3 3 4 3 3 4 5 6 5 4 5 5 6 6 6 7 7 7 7 7 6 6 5 5 4 3 2 1 0 0 1 1 1 2 2 3
13 11 8 6 6 7 7 8 9 11 13 13 13 17 20 20 18 13 9 8 6 5 5 4 3 3 4 4 5 4 4 4 6 6 6 5 5 5 6 6 7 7 8 8 7 8 7 6 5 5 5 4 4 3 2 1 1 1 2 2 2 2
11 10 7 6 6 5 5 6 8 10 12 13 13 17 20 21 21 16 10 8 7 7 6 5 4 4 4 5 6 6 6 6 6 6 6 6 6 6 7 7 7 8 9 8 8 8 8 7 6 5 6 5 5 5 4 3 2 2 2 2 2 1
11 8 6 6 5 4 4 5 7 9 12 13 14 16 20 22 22 19 13 9 8 8 8 7 5 5 5 5 6 7 8 8 6 5 5 6 6 7 7 7 7 9 10 9 9 9 9 9 8 7 7 7 7 6 5 4 3 3 3 3 2 1
10 7 5 5 4 3 3 4 7 8 11 13 14 15 18 20 22 22 18 13 11 9 9 8 7 6 6 5 5 6 7 7 5 4 4 5 6 7 7 6 7 9 10 10 10 11 11 11 10 9 9 8 8 7 6 5 4 3 3 3 2 1
9 6 4 3 3 2 2 3 6 8 11 14 14 15 17 18 19 20 19 18 15 14 13 11 9 7 5 4 4 5 6 5 4 4 4 4 5 6 7 7 7 8 9 10 10 11 12 12 11 10 10 10 8 7 6 6 5 4 3 3 2 1
7 5 4 3 2 2 1 2 5 7 11 13 14 15 16 17 18 18 18 17 17 16 16 15 12 8 4 3 3 4 5 4 3 2 3 4 4 5 5 6 6 7 9 8 8 10 12 12 11 10 11 11 9 8 7 7 6 5 4 4 3 2
6 5 3 3 3 1 1 1 4 7 10 12 13 14 15 16 17 17 18 18 17 16 16 17 14 10 6 3 3 3 4 4 3 2 3 4 5 5 5 5 5 6 8 8 7 8 11 11 10 10 10 10 10 9 8 8 7 6 6 5 4 3
6 4 3 3 3 2 1 2 4 7 9 12 13 13 14 15 16 16 17 18 18 17 16 18 15 11 9 6 4 2 2 3 3 3 3 4 5 5 5 5 5 6 7 8 7 6 8 10 9 9 9 10 10 9 9 8 8 8 7 6 5 5
5 3 2 3 3 2 2 2 4 6 9 11 12 13 13 14 14 15 16 17 18 17 17 18 15 11 11 9 6 4 2 3 3 4 4 4 5 5 4 4 5 5 6 7 7 6 6 8 8 8 8 9 10 9 9 9 9 9 8 7 6 6
4 2 2 3 3 3 3 3 4 7 9 11 12 13 13 13 13 14 16 17 18 17 18 19 15 11 11 10 8 6 4 3 4 4 5 5 5 5 4 4 5 5 5 6 7 7 6 8 8 7 7 8 9 9 10 9 9 10 9 7 6 6
3 2 3 3 4 4 4 4 4 6 8 9 11 11 11 12 13 13 15 17 18 18 19 19 16 12 11 10 9 8 7 6 5 5 6 6 5 6 5 4 4 5 6 6 8 7 6 8 9 7 7 8 9 9 9 10 10 11 10 9 8 8
2 1 2 3 3 3 4 4 4 5 6 8 9 10 10 11 12 12 14 15 17 18 20 21 18 14 11 10 9 8 8 7 7 7 7 7 6 7 6 5 4 5 6 7 7 7 6 8 9 9 8 9 9 9 9 10 11 12 12 11 10 10
2 1 1 2 2 2 3 3 3 4 6 7 8 9 10 10 11 11 13 14 16 18 20 21 20 17 14 12 10 9 8 8 7 7 7 8 6 5 5 5 5 5 6 7 7 5 5 7 9 9 9 9 10 10 9 9 10 11 11 11 11 11
2 2 1 2 3 3 3 3 4 4 5 6 7 8 9 10 10 10 12 13 15 18 19 21 21 20 19 16 14 12 10 8 7 6 6 6 5 4 4 5 5 5 6 6 5 4 4 7 8 9 8 9 10 10 10 9 9 10 10 10 10 10
2 2 2 2 3 3 4 4 5 5 5 6 7 8 8 9 10 10 11 13 15 17 18 19 21 21 21 20 18 16 14 11 7 4 3 3 3 3 4 5 6 7 8 8 5 4 4 6 7 8 8 8 9 9 9 10 10 10 9 9 9 9
2 2 2 3 3 3 3 4 5 5 5 5 6 6 7 8 9 9 11 12 14 15 17 18 20 21 21 21 21 20 18 16 11 5 2 2 3 3 4 5 6 7 9 9 6 4 4 6 6 7 7 7 8 8 9 10 11 11 11 11 10 10
1 2 2 3 3 2 3 4 4 4 4 5 5 5 5 7 8 9 10 12 13 14 16 17 18 20 21 21 21 22 22 22 18 12 5 4 4 4 4 5 6 7 8 7 6 5 4 5 4 5 6 6 7 7 8 9 10 11 11 11 11 11
1 2 2 2 2 2 3 4 4 4 5 5 5 5 4 6 7 9 10 11 12 13 15 16 17 18 20 20 21 22 24 25 24 20 12 6 5 5 5 5 6 7 9 8 7 6 4 3 2 3 4 5 6 6 6 7 8 8 9 9 9 9
1 1 2 1 1 1 2 3 4 5 5 5 5 5 4 5 6 9 10 11 12 13 14 15 16 17 18 19 20 21 23 24 26 25 19 11 6 4 4 6 7 8 9 9 7 7 5 3 2 2 2 2 4 4 4 5 5 5 4 5 6 7
1 1 2 1 0 1 2 3 4 5 6 6 6 5 5 5 6 8 9 10 11 12 12 13 14 16 16 18 19 20 22 23 24 25 24 20 13 8 6 5 6 7 8 8 8 7 6 5 2 2 2 3 3 3 4 5 4 2 1 2 3 4
1 1 1 1 0 1 2 3 4 5 5 5 6 6 6 6 6 7 8 10 10 11 11 12 13 14 15 16 17 19 20 21 22 23 24 24 21 17 13 10 9 8 8 8 7 7 7 6 4 4 3 3 4 4 6 8 6 3 3 4 4 4
2 1 1 1 0 2 2 3 4 5 4 4 6 6 7 7 7 7 8 10 10 10 11 11 12 12 13 14 16 17 18 19 20 21 22 23 23 22 20 18 16 14 12 9 7 6 6 7 6 6 5 5 5 5 6 8 7 6 6 5 5 6
2 2 2 1 0 1 2 2 3 4 3 4 6 6 7 7 7 7 8 9 11 11 11 11 11 11 11 13 14 15 16 17 18 19 20 21 21 22 22 22 21 19 17 15 10 6 5 6 6 7 7 6 6 6 7 7 7 9 8 6 7 7
3 3 2 2 1 1 1 2 3 3 3 4 5 5 5 5 6 6 7 8 9 10 11 11 11 11 11 11 13 13 14 15 15 16 18 18 19 20 21 21 21 21 20 18 15 11 7 5 5 6 6 7 7 7 8 8 9 10 10 11 12 10
4 3 3 2 1 0 1 1 2 3 3 4 5 5 5 5 5 6 6 7 8 8 9 10 10 10 11 11 12 12 13 13 13 14 15 17 17 17 18 19 20 21 21 19 18 15 12 9 7 6 5 6 7 8 9 9 10 11 12 13 13 14
4 4 4 3 2 1 0 1 1 2 3 4 4 5 6 5 5 5 6 7 6 7 8 9 10 10 10 11 11 12 13 13 13 13 14 15 16 16 16 17 18 19 20 19 18 17 16 14 12 10 8 8 8 8 9 9 10 11 11 11 12 14
5 5 5 4 2 1 1 1 2 2 3 3 4 5 5 5 4 5 5 6 6 6 7 8 9 9 10 10 11 11 12 13 13 13 13 14 15 15 15 16 17 17 17 18 17 16 16 15 15 14 12 10 9 9 10 11 11 11 12 12 12 13
6 6 5 4 3 2 1 1 2 2 2 3 4 4 3 4 4 5 5 5 6 6 6 7 7 8 10 10 11 11 12 13 13 13 13 14 14 15 15 15 16 16 16 16 16 15 14 14 14 14 13 12 11 10 11 11 11 11 12 13 13 14
7 6 6 5 4 3 2 2 2 2 2 2 2 2 4 6 6 6 7 7 8 8 8 8 7 8 9 11 11 12 13 13 13 13 13 13 14 14 14 14 14 15 15 15 15 14 13 13 12 12 12 12 11 11 11 10 10 10 11 12 13 14
8 8 7 6 5 4 4 3 3 3 2 1 2 4 6 8 9 9 9 9 10 10 10 10 9 9 10 11 11 12 12 12 12 12 12 12 13 13 13 13 13 13 13 13 13 13 13 13 12 12 12 11 10 10 10 10 10 10 10 10 12 13
9 9 8 7 7 6 5 4 3 2 2 2 4 5 7 8 9 9 9 10 10 11 11 11 10 10 10 11 11 12 12 12 12 12 12 12 13 13 13 13 13 12 12 12 13 13 13 12 12 11 12 12 12 11 10 10 10 10 10 10 11 12
9 9 8 8 8 6 5 4 4 3 3 5 6 6 7 8 8 8 9 9 10 10 10 10 10 10 10 11 11 12 12 12 13 13 13 13 13 13 14 14 14 14 13 12 13 14 13 13 12 12 12 13 13 12 11 11 11 11 11 11 11 11
9 10 9 8 8 7 5 5 4 4 5 7 7 8 8 8 8 8 8 9 9 9 9 9 10 10 10 10 11 11 12 12 12 13 13 14 14 14 15 15 16 16 15 14 15 15 15 15 14 13 13 13 14 14 12 11 12 11 12 12 12 12
Wind_Direction
23 19 20 23 26 30 30 30 38 42 37 30 27 24 21 21 23 17 15 10 6 22 37 51 58 65 80 79 73 62 54 43 35 36 35 29 28 29 23 11 2 7 17 21 18 31 47 44 43 42 26 14 2 358 45 80 85 76 78 90 108 118
21 18 22 27 31 37 35 39 47 45 34 26 24 22 21 23 25 25 20 11 6 16 33 52 58 56 62 69 65 53 44 37 27 25 27 22 22 26 26 21 13 15 20 17 16 32 42 40 49 52 35 22 7 6 33 85 103 81 74 115 136 133
19 17 24 31 34 43 44 46 48 41 30 21 22 22 21 24 27 29 25 13 7 0 357 14 33 46 59 70 67 60 41 35 27 17 20 23 23 25 25 23 20 20 21 18 14 25 37 38 46 53 41 26 7 359 28 56 92 195 123 134 148 148
17 17 28 35 39 48 48 45 41 33 24 18 22 24 24 28 30 32 34 27 17 5 355 354 354 0 23 41 47 44 25 24 21 18 25 30 29 29 25 21 18 15 20 25 20 22 33 36 39 42 40 37 28 358 315 1 326 209 167 136 135 145
16 19 30 39 43 48 46 38 29 24 20 17 24 29 30 30 31 34 39 39 28 13 11 11 1 345 346 3 17 22 14 10 10 12 24 34 35 38 33 24 16 13 20 27 29 32 33 30 35 37 31 32 31 22 42 96 112 139 150 133 128 129
17 19 30 39 44 46 43 30 18 17 15 18 29 34 35 34 31 32 37 42 41 34 28 24 15 358 358 6 6 12 15 11 7 7 21 32 34 42 43 32 22 19 23 26 33 35 27 25 34 36 28 31 37 36 55 102 116 119 125 131 139 69
16 17 26 34 41 45 39 17 10 10 9 19 34 38 39 38 35 34 35 37 37 37 32 25 19 10 11 11 4 12 17 10 8 15 28 31 29 38 45 37 27 25 25 27 32 33 27 29 38 39 37 47 53 52 65 86 93 108 122 134 142 38
12 12 21 30 38 46 34 9 3 2 5 21 38 39 39 40 38 38 40 41 36 29 21 15 10 8 8 2 358 8 13 6 8 27 37 34 29 33 39 37 25 22 24 25 30 33 30 34 44 47 47 53 55 56 65 71 75 99 116 125 125 32
8 7 20 35 45 51 33 3 355 353 5 22 36 38 36 36 35 37 40 42 41 34 26 16 5 360 357 353 357 358 359 2 9 32 43 36 33 31 32 34 23 17 23 24 27 31 32 36 46 51 49 49 48 50 53 57 71 93 103 102 96 41
4 6 24 43 54 62 41 355 344 349 5 19 31 34 33 32 29 29 32 33 33 30 25 19 8 0 355 348 357 348 345 358 7 29 46 39 35 29 25 29 25 23 26 27 28 33 35 38 44 47 47 47 49 52 52 57 69 81 86 81 75 58
3 6 26 52 61 62 41 343 336 348 1 11 21 28 29 28 24 21 23 25 23 20 17 15 11 9 18 21 7 350 334 342 352 15 42 41 35 22 15 20 21 25 28 28 30 36 38 38 41 44 45 44 47 53 56 59 66 72 78 77 76 74
1 9 33 56 60 48 23 341 334 346 355 0 10 19 23 23 20 17 18 21 21 15 11 13 15 21 31 35 26 8 325 317 339 1 18 30 31 16 2 2 3 10 18 22 21 31 38 36 42 51 49 42 39 43 48 54 61 64 66 71 75 72
359 17 51 64 61 48 29 0 340 343 351 355 3 13 19 19 18 19 21 24 22 15 10 12 21 32 36 35 30 19 348 320 335 351 359 8 17 10 348 333 339 349 2 13 14 24 40 38 46 57 54 47 41 41 49 56 58 60 60 64 67 63
354 29 73 74 69 58 41 14 350 348 353 358 4 12 17 17 17 21 25 27 24 18 13 15 28 42 41 37 34 28 17 356 343 339 341 346 358 3 344 314 316 329 347 5 14 27 49 53 57 63 60 55 49 48 57 63 62 62 61 62 62 61
344 39 85 77 74 68 49 29 8 358 359 5 10 13 15 14 15 20 26 28 27 24 19 21 33 48 47 40 38 36 30 18 2 346 335 335 345 354 348 327 319 329 346 360 7 21 50 64 68 76 73 65 59 58 64 70 71 69 66 65 65 66
327 37 84 70 71 64 41 34 22 10 6 11 16 16 13 11 11 16 22 26 29 29 27 27 35 46 49 42 36 35 32 24 11 358 345 338 336 343 350 349 335 331 345 356 0 14 49 65 72 83 83 73 69 71 75 77 77 76 73 70 68 65
309 347 39 37 43 25 22 27 24 18 12 19 25 20 14 10 9 13 18 21 27 30 30 31 35 40 43 40 34 30 28 24 14 5 355 348 348 352 358 359 349 338 342 353 357 12 52 68 75 85 87 80 77 80 82 81 78 75 74 72 70 65
301 318 307 349 18 8 10 20 27 30 21 28 33 23 13 7 8 9 13 16 20 26 29 32 35 37 39 37 33 30 26 20 14 14 7 2 10 22 22 15 9 1 354 359 3 16 58 73 80 89 90 85 83 84 84 80 74 69 67 67 66 62
305 333 309 326 1 7 14 23 29 32 25 32 36 26 11 4 8 6 7 12 15 22 28 30 33 36 38 37 34 32 29 22 16 24 34 30 39 49 45 32 25 20 11 11 22 41 60 71 82 90 93 91 88 86 81 76 74 73 70 66 62 58
319 349 327 325 349 6 21 25 27 30 26 33 38 30 11 1 6 4 4 10 15 21 26 30 32 34 37 37 35 34 34 33 31 34 71 96 95 77 57 38 24 21 14 11 25 55 65 72 81 86 90 94 95 90 81 77 78 80 80 77 70 63
316 350 342 331 350 12 32 32 27 31 32 38 41 34 14 1 2 3 4 10 16 21 25 28 30 32 35 36 35 34 36 39 38 40 63 98 96 76 54 39 23 20 22 22 36 56 69 79 83 86 84 84 92 91 83 82 86 85 83 82 78 72
283 337 345 337 354 17 36 36 26 27 33 36 39 37 24 4 358 2 6 10 17 21 24 26 28 30 33 34 34 33 35 39 41 42 52 79 91 73 53 41 29 27 29 34 44 49 59 81 92 94 88 83 85 82 77 85 95 94 88 84 81 74
251 328 352 350 357 28 34 29 19 20 27 27 30 38 36 19 5 4 8 11 15 19 22 25 27 28 30 32 34 33 33 37 41 45 49 59 75 72 53 36 31 29 22 25 42 50 53 61 80 81 68 73 73 70 73 78 88 97 92 83 76 68
220 331 353 341 335 59 43 22 12 13 19 25 33 44 45 34 19 6 7 13 15 17 22 25 26 27 29 32 34 36 35 35 39 44 46 49 53 53 45 27 21 16 8 14 30 40 45 43 36 19 9 14 20 26 35 30 38 62 49 35 46 47
205 300 323 279 280 58 39 17 10 8 13 29 42 47 44 38 33 16 6 12 16 18 22 25 25 25 26 30 34 37 37 36 37 41 43 44 47 48 46 37 26 15 6 9 16 19 25 31 30 24 16 15 17 20 10 359 4 21 348 334 331 337
216 257 262 254 321 61 41 23 15 8 14 38 44 44 42 41 44 35 17 15 18 20 23 23 23 23 24 27 30 34 36 36 36 38 40 40 42 45 45 43 39 33 28 24 16 7 13 22 25 25 27 28 27 18 358 351 356 355 339 338 339 331
221 232 228 230 93 64 46 39 29 15 24 44 44 42 42 43 45 42 30 20 17 19 23 23 23 23 24 25 26 29 33 34 33 34 36 38 38 40 41 42 40 38 38 35 32 27 22 20 16 21 28 24 15 2 352 350 350 346 337 329 326 327
218 227 223 214 176 62 41 47 39 28 33 41 40 37 38 37 37 36 32 25 16 14 18 23 24 23 25 26 26 27 29 31 32 30 32 34 34 34 36 39 39 38 38 36 35 34 29 18 11 18 20 11 1 354 347 342 340 339 335 323 314 312
216 219 215 203 181 101 38 46 39 35 32 28 27 24 22 21 24 26 24 25 19 10 13 20 23 23 23 24 24 24 25 27 28 27 28 30 31 30 29 32 35 36 36 35 35 34 31 24 14 5 356 350 347 343 338 334 333 330 329 326 322 321
214 207 202 198 187 196 352 24 14 13 14 12 12 10 9 8 12 17 15 18 19 12 12 16 18 20 20 20 20 20 20 22 24 24 24 26 29 30 27 26 28 31 32 33 33 33 32 30 25 15 3 356 350 346 345 341 339 338 337 334 330 332
212 204 202 205 208 224 261 305 322 336 350 357 2 3 9 12 14 21 19 17 18 13 12 13 14 18 22 24 24 24 25 27 28 27 27 28 29 30 29 27 26 26 27 28 29 29 30 30 28 25 21 18 17 13 6 360 359 2 1 355 347 345
212 210 211 214 216 226 250 278 300 318 334 347 359 11 31 43 42 43 38 32 30 25 21 18 16 23 34 42 45 45 45 45 45 43 40 38 37 35 33 30 26 24 23 23 23 23 24 24 25 26 27 29 30 27 20 14 13 13 11 4 358 354
209 215 218 219 217 221 239 260 279 291 305 328 9 77 79 72 69 65 62 59 57 54 47 40 37 40 50 58 60 59 56 53 51 49 46 44 41 39 36 32 28 25 22 20 18 17 15 14 14 16 20 24 26 26 24 20 14 10 6 1 355 352
206 212 216 220 220 221 235 254 265 273 277 263 121 107 90 78 73 69 66 65 62 60 57 54 52 51 52 53 52 50 48 44 42 39 37 34 32 30 27 26 24 21 18 14 12 10 7 5 3 360 1 3 6 9 11 12 10 5 359 354 351 347
203 208 211 217 221 221 234 245 240 238 216 152 131 108 90 80 72 67 63 60 58 58 59 58 57 53 48 44 39 37 34 31 28 25 23 21 18 16 13 11 10 8 8 3 359 360 356 354 354 350 347 346 347 349 349 351 355 356 353 347 346 343
197 199 205 213 217 219 224 221 207 194 162 138 127 108 92 82 76 70 64 61 58 57 57 56 54 51 46 41 36 32 27 23 19 15 12 9 6 3 360 359 357 356 356 351 346 347 344 342 343 340 336 335 335 338 336 332 334 338 339 337 337 337
196 197 205 209 205 203 204 196 183 165 144 131 119 107 96 87 80 72 64 60 57 55 52 48 45 41 38 35 30 26 22 18 13 8 4 360 356 354 351 350 350 349 348 343 338 339 337 333 333 329 326 325 326 330 330 323 323 323 322 322 324 325
Height
1520 1519 1518 1517 1516 1516 1515 1514 1514 1514 1513 1512 1510 1509 1507 1506 1504 1504 1503 1503 1502 1502 1501 1501 1500 1499 1499 1498 1498 1497 1497 1496 1496 1495 1495 1495 1495 1495 1494 1494 1493 1493 1493 1493 1493 1493 1492 1492 1492 1491 1491 1491 1491 1491 1491 1492 1492 1492 1493 1493 1493 1493
1520 1519 1518 1518 1517 1516 1516 1515 1515 1514 1513 1512 1511 1510 1508 1506 1505 1504 1504 1503 1503 1503 1502 1502 1501 1500 1500 1499 1499 1498 1498 1497 1496 1496 1496 1496 1495 1495 1495 1494 1494 1494 1494 1493 1493 1493 1492 1492 1492 1492 1491 1491 1491 1491 1491 1492 1492 1493 1493 1493 1493 1493
1520 1520 1519 1518 1518 1517 1516 1516 1516 1515 1514 1513 1512 1511 1509 1507 1505 1505 1504 1504 1503 1503 1503 1502 1502 1501 1500 1500 1499 1499 1498 1498 1497 1496 1496 1496 1496 1496 1495 1495 1494 1494 1494 1493 1493 1493 1492 1492 1492 1492 1491 1491 1491 1491 1492 1492 1492 1492 1493 1493 1493 1493
1521 1520 1519 1519 1518 1518 1517 1517 1516 1516 1515 1514 1513 1512 1510 1508 1506 1505 1505 1504 1504 1504 1503 1503 1502 1502 1501 1501 1500 1499 1499 1498 1498 1497 1497 1497 1497 1496 1496 1495 1494 1494 1494 1494 1493 1493 1492 1492 1492 1491 1491 1491 1491 1491 1492 1492 1492 1492 1493 1493 1493 1493
1521 1521 1520 1520 1519 1518 1518 1517 1517 1517 1516 1515 1514 1512 1511 1509 1507 1506 1505 1505 1505 1504 1504 1503 1503 1502 1502 1501 1500 1500 1499 1499 1498 1498 1498 1498 1497 1497 1496 1496 1495 1495 1495 1494 1494 1493 1492 1492 1492 1491 1491 1491 1491 1491 1492 1492 1492 1492 1492 1492 1492 1493
1522 1521 1521 1520 1520 1519 1519 1518 1518 1517 1517 1516 1515 1513 1512 1510 1508 1507 1506 1506 1506 1505 1505 1504 1503 1503 1502 1501 1501 1500 1500 1499 1499 1499 1498 1498 1498 1498 1497 1496 1496 1495 1495 1495 1494 1494 1493 1492 1492 1492 1491 1491 1491 1491 1491 1492 1492 1492 1492 1492 1492 1492
1522 1522 1522 1521 1520 1520 1519 1519 1518 1518 1517 1517 1515 1514 1513 1511 1510 1508 1507 1507 1506 1506 1505 1505 1504 1503 1502 1502 1501 1501 1501 1500 1500 1499 1499 1499 1499 1498 1498 1497 1497 1496 1496 1496 1495 1494 1494 1493 1493 1492 1492 1492 1492 1492 1492 1492 1492 1493 1493 1493 1493 1493
1523 1523 1522 1522 1521 1521 1520 1520 1519 1519 1518 1517 1516 1515 1514 1513 1512 1510 1509 1508 1507 1507 1506 1505 1504 1503 1503 1502 1502 1502 1501 1501 1500 1500 1500 1500 1499 1499 1499 1498 1498 1497 1496 1496 1496 1495 1495 1494 1494 1493 1493 1492 1492 1492 1492 1492 1493 1493 1493 1494 1494 1495
1523 1523 1523 1522 1522 1521 1521 1520 1520 1520 1519 1518 1517 1516 1515 1514 1513 1512 1511 1510 1509 1508 1507 1505 1504 1503 1503 1503 1502 1502 1502 1501 1501 1501 1500 1500 1500 1500 1499 1499 1498 1498 1497 1497 1496 1496 1495 1495 1494 1494 1494 1493 1493 1493 1493 1493 1493 1493 1494 1495 1495 1495
1524 1524 1523 1523 1522 1522 1522 1521 1521 1520 1520 1519 1518 1517 1516 1515 1514 1514 1513 1511 1510 1509 1507 1506 1504 1503 1503 1502 1502 1502 1502 1502 1502 1501 1501 1501 1501 1500 1500 1500 1499 1499 1498 1498 1497 1496 1496 1496 1495 1495 1495 1494 1494 1494 1494 1494 1494 1494 1494 1495 1495 1495
1524 1524 1524 1523 1523 1522 1522 1522 1521 1521 1520 1519 1519 1518 1517 1516 1515 1514 1513 1512 1511 1509 1508 1506 1504 1503 1502 1502 1502 1502 1502 1502 1502 1502 1501 1501 1501 1501 1500 1500 1500 1500 1499 1499 1498 1497 1497 1496 1496 1496 1496 1495 1495 1495 1494 1494 1494 1494 1494 1495 1495 1495
1525 1525 1524 1524 1523 1523 1523 1523 1522 1521 1521 1520 1519 1518 1518 1517 1516 1515 1514 1513 1512 1510 1508 1506 1504 1503 1502 1502 1502 1502 1502 1502 1502 1502 1502 1502 1502 1502 1501 1500 1500 1500 1500 1500 1499 1498 1498 1497 1497 1497 1497 1496 1496 1496 1495 1495 1495 1495 1495 1495 1496 1496
1525 1525 1525 1524 1524 1524 1523 1523 1523 1522 1521 1520 1520 1519 1518 1517 1516 1515 1515 1514 1512 1511 1509 1507 1505 1504 1503 1503 1502 1502 1502 1502 1502 1502 1502 1502 1502 1502 1502 1501 1501 1501 1501 1501 1500 1499 1499 1498 1498 1497 1497 1497 1497 1497 1496 1496 1496 1496 1496 1496 1496 1496
1526 1526 1525 1525 1524 1524 1524 1524 1523 1522 1522 1521 1520 1520 1519 1518 1517 1516 1516 1514 1513 1512 1510 1508 1506 1505 1504 1504 1503 1503 1503 1503 1503 1503 1503 1503 1503 1502 1502 1502 1501 1501 1501 1501 1501 1500 1500 1499 1499 1498 1498 1498 1498 1498 1497 1497 1497 1497 1497 1497 1497 1497
1526 1526 1526 1525 1525 1525 1524 1524 1524 1523 1522 1522 1521 1520 1520 1519 1518 1517 1517 1516 1514 1513 1511 1509 1507 1506 1505 1505 1504 1504 1503 1503 1503 1503 1503 1503 1503 1503 1502 1502 1502 1502 1502 1502 1501 1501 1501 1500 1500 1500 1499 1499 1499 1499 1498 1498 1498 1498 1498 1498 1498 1498
1526 1526 1526 1526 1526 1525 1525 1525 1524 1524 1523 1522 1522 1521 1520 1520 1519 1518 1517 1517 1515 1514 1512 1510 1508 1507 1507 1506 1505 1505 1504 1504 1504 1504 1503 1503 1503 1503 1502 1502 1502 1502 1502 1502 1502 1502 1501 1501 1501 1500 1500 1500 1500 1500 1499 1499 1499 1499 1499 1499 1499 1498
1526 1526 1526 1526 1526 1526 1525 1525 1525 1524 1524 1523 1523 1522 1521 1520 1520 1519 1518 1518 1516 1515 1514 1512 1510 1509 1508 1507 1506 1506 1505 1505 1504 1504 1503 1503 1503 1503 1503 1503 1503 1503 1503 1503 1502 1502 1502 1502 1501 1501 1501 1501 1501 1501 1500 1500 1500 1500 1500 1500 1499 1499
1527 1526 1526 1526 1526 1526 1526 1526 1525 1525 1524 1524 1523 1522 1522 1521 1520 1520 1519 1518 1517 1516 1515 1513 1512 1510 1509 1508 1507 1507 1506 1505 1504 1504 1504 1503 1503 1503 1503 1504 1504 1503 1503 1503 1503 1502 1502 1502 1502 1502 1502 1502 1502 1502 1501 1501 1501 1501 1500 1500 1500 1500
1527 1527 1527 1527 1527 1527 1526 1526 1526 1525 1525 1524 1524 1523 1522 1522 1521 1520 1520 1519 1518 1517 1516 1514 1513 1512 1511 1510 1509 1507 1506 1505 1504 1504 1504 1504 1504 1504 1504 1504 1504 1504 1504 1503 1503 1503 1503 1503 1503 1503 1503 1503 1503 1503 1502 1502 1502 1502 1501 1501 1501 1500
1527 1527 1527 1527 1527 1527 1527 1526 1526 1526 1526 1525 1524 1524 1523 1522 1522 1521 1520 1520 1519 1518 1517 1516 1514 1513 1512 1511 1510 1508 1507 1506 1505 1504 1504 1504 1504 1504 1505 1505 1505 1505 1504 1504 1504 1504 1504 1503 1503 1504 1504 1504 1503 1503 1503 1503 1503 1503 1502 1502 1502 1501
1527 1527 1527 1527 1527 1527 1527 1527 1526 1526 1526 1526 1525 1525 1524 1523 1522 1522 1521 1520 1520 1519 1518 1517 1516 1515 1514 1512 1511 1510 1509 1507 1505 1505 1504 1505 1505 1505 1506 1506 1506 1505 1505 1504 1504 1504 1504 1504 1504 1504 1504 1504 1504 1504 1504 1504 1504 1504 1503 1503 1503 1502
1527 1528 1528 1528 1528 1527 1527 1527 1527 1527 1526 1526 1526 1525 1525 1524 1523 1522 1522 1521 1520 1520 1519 1518 1517 1516 1515 1514 1513 1512 1510 1509 1507 1506 1505 1506 1506 1506 1506 1507 1506 1506 1506 1505 1505 1505 1505 1505 1505 1505 1505 1505 1505 1505 1505 1505 1505 1504 1504 1504 1503 1503
1527 1528 1528 1528 1528 1528 1528 1527 1527 1527 1527 1526 1526 1526 1525 1525 1524 1523 1522 1522 1521 1520 1520 1519 1518 1517 1516 1515 1514 1513 1512 1511 1509 1508 1507 1507 1507 1507 1507 1507 1507 1507 1506 1506 1506 1505 1505 1505 1505 1505 1505 1505 1505 1505 1505 1505 1505 1505 1505 1504 1504 1504
1527 1528 1528 1528 1528 1528 1528 1527 1527 1527 1527 1527 1526 1526 1526 1525 1524 1523 1523 1522 1521 1521 1520 1520 1519 1518 1517 1517 1516 1515 1514 1513 1512 1510 1510 1509 1509 1509 1508 1508 1508 1507 1507 1506 1506 1506 1506 1505 1505 1505 1505 1505 1505 1505 1505 1505 1505 1505 1505 1505 1505 1505
1528 1528 1528 1528 1528 1528 1528 1528 1528 1527 1527 1527 1527 1527 1526 1526 1525 1524 1523 1523 1522 1521 1521 1520 1520 1519 1519 1518 1517 1516 1516 1515 1514 1513 1512 1511 1510 1510 1509 1509 1508 1508 1507 1507 1506 1506 1506 1506 1506 1505 1505 1505 1505 1505 1506 1506 1505 1505 1505 1505 1505 1505
1528 1528 1528 1528 1528 1528 1528 1528 1528 1528 1528 1527 1527 1527 1526 1526 1525 1525 1524 1523 1523 1522 1522 1521 1520 1520 1519 1519 1518 1518 1517 1516 1516 1515 1514 1513 1512 1512 1511 1510 1509 1508 1507 1507 1507 1507 1507 1507 1506 1506 1506 1506 1506 1506 1506 1506 1506 1506 1505 1505 1505 1505
1527 1528 1528 1528 1528 1528 1528 1528 1528 1528 1528 1528 1527 1527 1527 1527 1526 1525 1525 1524 1523 1522 1522 1522 1521 1521 1520 1520 1519 1519 1518 1518 1517 1516 1516 1515 1514 1513 1513 1512 1511 1510 1509 1508 1508 1508 1508 1507 1507 1507 1507 1507 1507 1507 1507 1506 1506 1506 1505 1505 1505 1505
1527 1528 1528 1528 1528 1528 1528 1528 1528 1528 1528 1528 1528 1528 1527 1527 1526 1526 1525 1524 1524 1523 1522 1522 1522 1521 1521 1520 1520 1520 1519 1519 1518 1518 1517 1516 1515 1515 1514 1513 1512 1511 1510 1509 1509 1508 1508 1508 1508 1508 1508 1508 1508 1507 1507 1507 1506 1506 1505 1504 1504 1504
1527 1528 1528 1528 1528 1528 1528 1528 1529 1528 1528 1528 1528 1528 1527 1527 1527 1526 1526 1525 1524 1524 1523 1523 1522 1522 1521 1521 1521 1520 1520 1519 1519 1518 1518 1517 1516 1516 1515 1514 1514 1513 1512 1511 1510 1509 1509 1509 1509 1509 1509 1509 1508 1508 1508 1507 1507 1506 1506 1505 1503 1503
1527 1527 1528 1528 1528 1528 1528 1528 1529 1528 1528 1528 1528 1528 1527 1527 1527 1526 1526 1525 1525 1524 1524 1523 1523 1522 1522 1521 1521 1520 1520 1520 1519 1519 1518 1518 1517 1516 1516 1515 1514 1514 1513 1512 1512 1511 1510 1510 1510 1509 1509 1509 1509 1508 1508 1508 1507 1506 1506 1505 1504 1503
1527 1527 1528 1528 1528 1528 1529 1528 1529 1529 1528 1529 1528 1528 1528 1527 1527 1526 1526 1526 1525 1525 1524 1524 1523 1523 1522 1522 1521 1521 1520 1520 1519 1519 1518 1518 1518 1517 1516 1516 1515 1514 1514 1514 1513 1512 1512 1511 1510 1510 1509 1509 1509 1508 1508 1508 1507 1507 1506 1505 1504 1503
1526 1527 1527 1528 1528 1528 1529 1528 1528 1529 1528 1529 1528 1528 1528 1527 1527 1526 1526 1526 1526 1525 1525 1524 1524 1523 1523 1522 1522 1521 1521 1520 1520 1519 1519 1518 1518 1517 1517 1516 1515 1515 1514 1514 1514 1513 1512 1512 1511 1511 1510 1510 1509 1509 1508 1508 1508 1507 1506 1506 1505 1504
1526 1527 1527 1527 1528 1528 1528 1528 1528 1528 1528 1528 1528 1528 1528 1527 1527 1527 1527 1526 1526 1526 1525 1525 1524 1524 1523 1523 1522 1522 1521 1521 1520 1520 1519 1519 1518 1518 1517 1517 1516 1515 1515 1514 1514 1513 1513 1512 1512 1511 1511 1510 1510 1509 1509 1508 1508 1507 1507 1506 1505 1504
1525 1526 1526 1527 1527 1527 1528 1528 1528 1528 1528 1528 1528 1528 1528 1528 1528 1527 1527 1527 1527 1526 1526 1525 1525 1524 1524 1523 1523 1522 1522 1521 1521 1520 1520 1519 1519 1518 1518 1517 1517 1516 1515 1515 1514 1514 1513 1513 1512 1512 1511 1511 1510 1509 1509 1508 1508 1507 1507 1506 1505 1504
1524 1525 1526 1526 1527 1527 1527 1527 1528 1528 1528 1528 1528 1528 1528 1528 1528 1528 1528 1527 1527 1527 1526 1526 1526 1525 1525 1524 1523 1523 1522 1522 1521 1521 1520 1519 1519 1518 1518 1517 1517 1516 1516 1515 1514 1514 1514 1513 1512 1512 1511 1511 1510 1509 1509 1508 1508 1507 1506 1506 1505 1504
1524 1524 1525 1525 1526 1526 1527 1527 1527 1528 1528 1528 1528 1528 1528 1528 1528 1528 1528 1528 1528 1527 1527 1527 1526 1526 1526 1525 1524 1524 1523 1522 1522 1521 1520 1520 1519 1518 1518 1517 1517 1516 1516 1515 1515 1514 1513 1513 1512 1512 1511 1510 1510 1509 1509 1508 1507 1507 1506 1505 1505 1504
1523 1523 1524 1524 1525 1525 1526 1526 1527 1527 1528 1528 1528 1528 1528 1528 1529 1528 1528 1528 1528 1528 1528 1527 1527 1526 1526 1526 1525 1525 1524 1523 1522 1522 1521 1520 1519 1518 1518 1517 1516 1516 1515 1515 1514 1513 1513 1512 1512 1511 1511 1510 1509 1509 1508 1508 1507 1506 1506 1505 1505 1504